Time,TemperatureF,DewpointF,PressureIn,WindDirection,WindDirectionDegrees,WindSpeedMPH,WindSpeedGustMPH,Humidity,HourlyPrecipIn,Conditions,Clouds,dailyrainin,SoftwareType,DateUTC
2013-05-19 00:13:00,49.5,47.6,30.24,NE,45,0.0,-999.0,93,-99.99,,,0.00,Acu-Link.com,2013-05-19 04:13:00,
2013-05-19 00:28:00,49.3,47.4,30.25,ENE,67,0.0,-999.0,93,-99.99,,,0.00,Acu-Link.com,2013-05-19 04:28:00,
2013-05-19 00:44:00,48.6,46.7,30.24,SSW,202,0.0,-999.0,93,-99.99,,,0.00,Acu-Link.com,2013-05-19 04:44:00,
2013-05-19 00:59:00,48.4,46.8,30.25,ENE,67,0.0,-999.0,94,-99.99,,,0.00,Acu-Link.com,2013-05-19 04:59:00,
2013-05-19 01:14:00,48.2,46.8,30.24,West,270,0.0,-999.0,95,-99.99,,,0.00,Acu-Link.com,2013-05-19 05:14:00,
2013-05-19 01:29:00,47.8,46.4,30.24,NE,45,0.0,-999.0,95,-99.99,,,0.00,Acu-Link.com,2013-05-19 05:29:00,
2013-05-19 01:45:00,47.7,46.3,30.23,SW,225,0.0,-999.0,95,-99.99,,,0.00,Acu-Link.com,2013-05-19 05:45:00,
2013-05-19 02:00:00,47.5,46.1,30.23,SW,225,0.0,-999.0,95,-99.99,,,0.00,Acu-Link.com,2013-05-19 06:00:00,
2013-05-19 02:15:00,47.5,46.1,30.23,East,90,0.0,-999.0,95,-99.99,,,0.00,Acu-Link.com,2013-05-19 06:15:00,
2013-05-19 02:30:00,47.3,45.9,30.23,NNE,22,0.0,-999.0,95,-99.99,,,0.00,Acu-Link.com,2013-05-19 06:30:00,
2013-05-19 02:46:00,47.3,46.2,30.24,NNE,22,0.0,-999.0,96,-99.99,,,0.00,Acu-Link.com,2013-05-19 06:46:00,
2013-05-19 03:01:00,47.3,46.2,30.23,East,90,0.0,-999.0,96,-99.99,,,0.00,Acu-Link.com,2013-05-19 07:01:00,
2013-05-19 03:16:00,47.1,46.0,30.24,SW,225,0.0,-999.0,96,-99.99,,,0.00,Acu-Link.com,2013-05-19 07:16:00,
2013-05-19 03:32:00,47.3,46.2,30.24,ESE,112,0.0,-999.0,96,-99.99,,,0.00,Acu-Link.com,2013-05-19 07:32:00,
2013-05-19 03:47:00,47.1,46.0,30.24,NE,45,0.0,-999.0,96,-99.99,,,0.00,Acu-Link.com,2013-05-19 07:47:00,
2013-05-19 04:02:00,47.1,46.3,30.25,ESE,112,0.0,-999.0,97,-99.99,,,0.00,Acu-Link.com,2013-05-19 08:02:00,
2013-05-19 04:17:00,46.9,45.8,30.24,East,90,0.0,-999.0,96,-99.99,,,0.00,Acu-Link.com,2013-05-19 08:17:00,
2013-05-19 04:33:00,46.9,45.8,30.25,NNE,22,0.0,-999.0,96,-99.99,,,0.00,Acu-Link.com,2013-05-19 08:33:00,
2013-05-19 04:48:00,46.9,46.1,30.26,NNE,22,0.0,-999.0,97,-99.99,,,0.00,Acu-Link.com,2013-05-19 08:48:00,
2013-05-19 05:03:00,47.1,46.3,30.25,NNE,22,0.0,-999.0,97,-99.99,,,0.00,Acu-Link.com,2013-05-19 09:03:00,
2013-05-19 05:18:00,47.5,47.0,30.26,NNE,22,0.0,-999.0,98,-99.99,,,0.00,Acu-Link.com,2013-05-19 09:18:00,
2013-05-19 05:33:00,47.7,47.2,30.26,NNE,22,0.0,-999.0,98,-99.99,,,0.00,Acu-Link.com,2013-05-19 09:33:00,
2013-05-19 05:49:00,48.0,47.5,30.27,NNE,22,0.0,-999.0,98,-99.99,,,0.00,Acu-Link.com,2013-05-19 09:49:00,
2013-05-19 06:04:00,48.2,47.7,30.27,NE,45,0.0,-999.0,98,-99.99,,,0.00,Acu-Link.com,2013-05-19 10:04:00,
2013-05-19 06:19:00,48.6,48.1,30.27,East,90,0.0,-999.0,98,-99.99,,,0.00,Acu-Link.com,2013-05-19 10:19:00,
2013-05-19 06:34:00,50.2,49.4,30.28,ENE,67,0.0,-999.0,97,-99.99,,,0.00,Acu-Link.com,2013-05-19 10:34:00,
2013-05-19 06:50:00,51.8,50.1,30.28,NE,45,0.0,-999.0,94,-99.99,,,0.00,Acu-Link.com,2013-05-19 10:50:00,
2013-05-19 07:05:00,53.1,51.1,30.28,NE,45,0.0,-999.0,93,-99.99,,,0.00,Acu-Link.com,2013-05-19 11:05:00,
2013-05-19 07:20:00,55.2,51.7,30.29,NE,45,0.0,-999.0,88,-99.99,,,0.00,Acu-Link.com,2013-05-19 11:20:00,
2013-05-19 07:36:00,56.5,52.4,30.29,ESE,112,0.0,-999.0,86,-99.99,,,0.00,Acu-Link.com,2013-05-19 11:36:00,
2013-05-19 07:51:00,58.1,52.6,30.29,South,180,0.0,-999.0,82,-99.99,,,0.00,Acu-Link.com,2013-05-19 11:51:00,
2013-05-19 08:06:00,59.0,52.5,30.28,ESE,112,2.2,-999.0,79,-99.99,,,0.00,Acu-Link.com,2013-05-19 12:06:00,
2013-05-19 08:22:00,59.2,52.0,30.30,ESE,112,0.0,-999.0,77,-99.99,,,0.00,Acu-Link.com,2013-05-19 12:22:00,
2013-05-19 08:37:00,57.9,51.4,30.30,East,90,0.0,-999.0,79,-99.99,,,0.00,Acu-Link.com,2013-05-19 12:37:00,
2013-05-19 08:52:00,58.5,52.4,30.30,South,180,1.7,-999.0,80,-99.99,,,0.00,Acu-Link.com,2013-05-19 12:52:00,
2013-05-19 09:07:00,58.8,52.3,30.29,SSE,157,0.0,-999.0,79,-99.99,,,0.00,Acu-Link.com,2013-05-19 13:07:00,
2013-05-19 09:22:00,58.6,51.4,30.30,SE,135,1.1,-999.0,77,-99.99,,,0.00,Acu-Link.com,2013-05-19 13:22:00,
2013-05-19 09:38:00,59.7,51.8,30.30,South,180,1.7,-999.0,75,-99.99,,,0.00,Acu-Link.com,2013-05-19 13:38:00,
2013-05-19 09:53:00,59.2,52.0,30.30,South,180,1.1,-999.0,77,-99.99,,,0.00,Acu-Link.com,2013-05-19 13:53:00,
2013-05-19 10:08:00,58.8,51.6,30.30,ESE,112,3.2,-999.0,77,-99.99,,,0.00,Acu-Link.com,2013-05-19 14:08:00,
2013-05-19 10:24:00,59.9,52.3,30.30,SSE,157,3.7,-999.0,76,-99.99,,,0.00,Acu-Link.com,2013-05-19 14:24:00,
2013-05-19 10:39:00,59.0,51.8,30.31,South,180,2.7,-999.0,77,-99.99,,,0.00,Acu-Link.com,2013-05-19 14:39:00,
2013-05-19 10:54:00,61.0,52.7,30.31,East,90,2.7,-999.0,74,-99.99,,,0.00,Acu-Link.com,2013-05-19 14:54:00,
2013-05-19 11:09:00,60.4,52.4,30.31,SSE,157,1.1,-999.0,75,-99.99,,,0.00,Acu-Link.com,2013-05-19 15:09:00,
2013-05-19 11:25:00,60.1,52.5,30.31,South,180,1.7,-999.0,76,-99.99,,,0.00,Acu-Link.com,2013-05-19 15:25:00,
2013-05-19 11:40:00,58.5,52.0,30.30,SSW,202,2.2,-999.0,79,-99.99,,,0.00,Acu-Link.com,2013-05-19 15:40:00,
2013-05-19 11:55:00,58.6,53.1,30.30,SSW,202,0.0,-999.0,82,-99.99,,,0.00,Acu-Link.com,2013-05-19 15:55:00,
2013-05-19 12:10:00,57.7,52.6,30.30,South,180,3.2,-999.0,83,-99.99,,,0.00,Acu-Link.com,2013-05-19 16:10:00,
2013-05-19 12:26:00,58.5,54.0,30.30,ESE,112,0.0,-999.0,85,-99.99,,,0.00,Acu-Link.com,2013-05-19 16:26:00,
2013-05-19 12:56:00,58.6,53.5,30.28,South,180,1.1,-999.0,83,-99.99,,,0.00,Acu-Link.com,2013-05-19 16:56:00,
2013-05-19 13:12:00,58.6,53.8,30.28,ESE,112,1.7,-999.0,84,-99.99,,,0.00,Acu-Link.com,2013-05-19 17:12:00,
2013-05-19 13:27:00,58.3,53.5,30.27,SE,135,3.2,-999.0,84,-99.99,,,0.00,Acu-Link.com,2013-05-19 17:27:00,
2013-05-19 13:42:00,59.2,54.0,30.26,SSW,202,1.7,-999.0,83,-99.99,,,0.00,Acu-Link.com,2013-05-19 17:42:00,
2013-05-19 13:58:00,59.7,54.2,30.26,SSE,157,1.7,-999.0,82,-99.99,,,0.00,Acu-Link.com,2013-05-19 17:58:00,
2013-05-19 14:13:00,58.6,53.5,30.26,SSE,157,2.7,-999.0,83,-99.99,,,0.00,Acu-Link.com,2013-05-19 18:13:00,
2013-05-19 14:28:00,58.6,53.8,30.26,East,90,1.7,-999.0,84,-99.99,,,0.00,Acu-Link.com,2013-05-19 18:28:00,
2013-05-19 14:44:00,58.3,53.8,30.26,SSE,157,1.1,-999.0,85,-99.99,,,0.00,Acu-Link.com,2013-05-19 18:44:00,
2013-05-19 14:59:00,57.6,54.4,30.25,SE,135,0.0,-999.0,89,-99.99,,,0.00,Acu-Link.com,2013-05-19 18:59:00,
2013-05-19 15:14:00,57.9,55.0,30.25,SSE,157,0.0,-999.0,90,-99.99,,,0.01,Acu-Link.com,2013-05-19 19:14:00,
2013-05-19 15:29:00,57.7,54.8,30.24,ESE,112,2.2,-999.0,90,-99.99,,,0.01,Acu-Link.com,2013-05-19 19:29:00,
2013-05-19 15:45:00,56.8,54.8,30.24,ESE,112,0.0,-999.0,93,-99.99,,,0.01,Acu-Link.com,2013-05-19 19:45:00,
2013-05-19 16:00:00,56.7,54.7,30.25,NE,45,1.1,-999.0,93,-99.99,,,0.02,Acu-Link.com,2013-05-19 20:00:00,
2013-05-19 16:16:00,56.5,54.5,30.24,East,90,1.1,-999.0,93,-99.99,,,0.04,Acu-Link.com,2013-05-19 20:16:00,
2013-05-19 16:31:00,56.1,54.4,30.23,SSE,157,1.1,-999.0,94,-99.99,,,0.05,Acu-Link.com,2013-05-19 20:31:00,
2013-05-19 16:46:00,55.6,53.9,30.23,East,90,0.0,-999.0,94,-99.99,,,0.07,Acu-Link.com,2013-05-19 20:46:00,
2013-05-19 17:02:00,55.6,54.2,30.23,ESE,112,0.0,-999.0,95,-99.99,,,0.07,Acu-Link.com,2013-05-19 21:02:00,
2013-05-19 17:17:00,55.4,54.0,30.23,ESE,112,1.7,-999.0,95,-99.99,,,0.09,Acu-Link.com,2013-05-19 21:17:00,
2013-05-19 17:32:00,55.4,54.0,30.23,East,90,3.7,-999.0,95,-99.99,,,0.10,Acu-Link.com,2013-05-19 21:32:00,
2013-05-19 17:47:00,55.2,54.1,30.22,SE,135,0.0,-999.0,96,-99.99,,,0.11,Acu-Link.com,2013-05-19 21:47:00,
2013-05-19 18:03:00,55.2,54.1,30.22,SW,225,1.1,-999.0,96,-99.99,,,0.12,Acu-Link.com,2013-05-19 22:03:00,
2013-05-19 18:18:00,55.0,54.2,30.22,ESE,112,3.7,-999.0,97,-99.99,,,0.13,Acu-Link.com,2013-05-19 22:18:00,
2013-05-19 18:33:00,54.9,54.1,30.22,SSW,202,3.7,-999.0,97,-99.99,,,0.13,Acu-Link.com,2013-05-19 22:33:00,
2013-05-19 18:49:00,54.7,53.9,30.21,ENE,67,4.2,-999.0,97,-99.99,,,0.14,Acu-Link.com,2013-05-19 22:49:00,
2013-05-19 19:04:00,54.5,53.9,30.20,ESE,112,1.7,-999.0,98,-99.99,,,0.14,Acu-Link.com,2013-05-19 23:04:00,
2013-05-19 19:19:00,54.5,53.9,30.20,WSW,247,2.7,-999.0,98,-99.99,,,0.15,Acu-Link.com,2013-05-19 23:19:00,
2013-05-19 19:34:00,54.5,53.9,30.20,ESE,112,2.7,-999.0,98,-99.99,,,0.17,Acu-Link.com,2013-05-19 23:34:00,
2013-05-19 19:49:00,54.3,53.7,30.19,SSE,157,1.1,-999.0,98,-99.99,,,0.19,Acu-Link.com,2013-05-19 23:49:00,
2013-05-19 20:04:00,54.3,53.7,30.19,SSW,202,3.7,-999.0,98,-99.99,,,0.20,Acu-Link.com,2013-05-20 00:04:00,
2013-05-19 20:20:00,54.5,53.9,30.19,ESE,112,0.0,-999.0,98,-99.99,,,0.21,Acu-Link.com,2013-05-20 00:20:00,
2013-05-19 20:35:00,54.5,54.2,30.19,ESE,112,2.2,-999.0,99,-99.99,,,0.22,Acu-Link.com,2013-05-20 00:35:00,
2013-05-19 20:50:00,54.7,54.4,30.19,East,90,0.0,-999.0,99,-99.99,,,0.25,Acu-Link.com,2013-05-20 00:50:00,
2013-05-19 21:06:00,54.7,54.4,30.18,ESE,112,1.1,-999.0,99,-99.99,,,0.26,Acu-Link.com,2013-05-20 01:06:00,
2013-05-19 21:21:00,54.7,54.4,30.18,NE,45,0.0,-999.0,99,-99.99,,,0.27,Acu-Link.com,2013-05-20 01:21:00,
2013-05-19 21:37:00,54.9,54.6,30.17,South,180,3.2,-999.0,99,-99.99,,,0.28,Acu-Link.com,2013-05-20 01:37:00,
2013-05-19 21:52:00,54.9,54.6,30.17,NE,45,0.0,-999.0,99,-99.99,,,0.28,Acu-Link.com,2013-05-20 01:52:00,
2013-05-19 22:07:00,54.9,54.6,30.17,East,90,0.0,-999.0,99,-99.99,,,0.28,Acu-Link.com,2013-05-20 02:07:00,
2013-05-19 22:23:00,55.0,54.7,30.16,ESE,112,2.2,-999.0,99,-99.99,,,0.28,Acu-Link.com,2013-05-20 02:23:00,
2013-05-19 22:38:00,55.0,54.7,30.16,South,180,0.0,-999.0,99,-99.99,,,0.30,Acu-Link.com,2013-05-20 02:38:00,
2013-05-19 22:53:00,55.0,54.7,30.15,NNE,22,1.7,-999.0,99,-99.99,,,0.32,Acu-Link.com,2013-05-20 02:53:00,
2013-05-19 23:09:00,55.2,54.9,30.14,East,90,0.0,-999.0,99,-99.99,,,0.33,Acu-Link.com,2013-05-20 03:09:00,
2013-05-19 23:24:00,55.2,54.9,30.15,SE,135,0.0,-999.0,99,-99.99,,,0.33,Acu-Link.com,2013-05-20 03:24:00,
2013-05-19 23:39:00,55.2,54.9,30.15,WNW,292,0.0,-999.0,99,-99.99,,,0.33,Acu-Link.com,2013-05-20 03:39:00,
2013-05-19 23:55:00,55.2,54.9,30.14,NE,45,1.7,-999.0,99,-99.99,,,0.34,Acu-Link.com,2013-05-20 03:55:00,